Location: Bartshausen
(51.8454°N, 9.8167°E)
Time: 22:12:31
(UTC+00:00)

Iridium 4 Rocket - Pass Details

Date: 21 February 2026
Orbit: 579 x 887 km, 86.9° (Epoch: 11 March)

Event Time Altitude Azimuth Distance (km) Brightness Sun altitude
Rises 17:32:01 0° 7° (N) 3,014 6.4 -7.8°
Reaches altitude 10° 17:35:00 10° 26° (NNE) 2,040 5.4 -8.2°
Maximum altitude 17:38:03 18° 69° (ENE) 1,540 4.5 -8.7°
Drops below altitude 10° 17:40:57 10° 113° (ESE) 1,943 5.1 -9.2°
Enters shadow 17:41:57 - 122° (ESE) 2,225 5.4 -9.3°
